Location: Newark
(45.8667°N, 9.7333°E)
Time: 11:46:28
(UTC+00:00)

Vanguard 3 - Pass Details

Date: 02 February 2020
Orbit: 508 x 3263 km, 33.3° (Epoch: 24 February)

Event Time Altitude Azimuth Distance (km) Brightness Sun altitude
Rises 21:27:01 0° 278° (W) 7,211 12.5 -50.6°
Reaches altitude 10° 21:34:18 10° 264° (W) 5,997 11.8 -51.6°
Maximum altitude 21:44:35 18° 229° (SW) 4,750 11.0 -53.0°
Enters shadow 21:46:14 18° 222° (SW) 4,655 10.9 -53.2°
Drops below altitude 10° 21:52:58 10° 192° (SSW) 4,728 - -54.0°
Sets 21:57:44 0° 175° (S) 5,238 - -54.6°
